SCP
0 0 0 0 0 0 0 0 0 0 0 0 0 0 0 0 0 0 0 0 0 0 1 1 1 1 1 1 1 1 1 1 1 0 0 0 0 0 0 0 0 0 0 0 0 0 0 0 0
0 0 0 0 0 0 0 0 0 0 0 0 0 0 0 0 0 0 0 0 0 0 1 1 1 1 1 1 1 1 1 1 1 0 0 0 0 0 0 0 0 0 0 0 0 0 0 0 0
0 0 0 0 0 0 0 0 0 0 0 0 0 0 0 0 0 0 0 0 0 0 1 1 1 1 1 0 0 0 1 1 1 0 0 0 0 0 0 0 0 0 0 0 0 0 0 0 0
0 0 0 0 0 0 0 0 0 0 0 0 0 0 0 0 0 0 0 0 0 0 1 1 1 1 1 0 0 0 0 0 0 0 0 0 0 0 0 0 0 0 0 0 0 0 0 0 0
0 0 0 0 0 0 0 0 0 0 0 0 0 0 0 0 0 0 0 0 0 0 1 1 1 1 1 1 0 0 0 0 0 0 0 0 0 0 0 0 0 0 0 0 0 0 0 0 0
0 0 0 0 0 0 0 0 0 0 0 0 0 0 0 0 0 0 0 0 0 0 1 1 1 1 1 1 1 0 0 0 0 0 0 0 0 0 0 0 0 0 0 0 0 0 0 0 0
0 0 0 0 0 0 0 0 0 0 0 0 0 0 0 0 0 0 0 0 0 0 0 1 1 1 1 1 1 0 0 0 0 0 0 0 0 0 0 0 0 0 0 0 0 0 0 0 0
0 0 0 0 0 0 0 0 0 0 0 0 0 0 0 0 0 0 0 0 0 0 0 1 1 1 1 1 0 0 0 0 0 0 0 0 0 0 0 0 0 0 0 0 0 0 0 0 0
0 0 0 0 0 0 0 0 0 0 0 0 0 0 0 0 0 1 0 0 0 0 1 1 1 1 1 1 1 0 0 0 0 0 0 0 0 0 0 0 0 0 0 0 0 0 0 0 0
0 0 0 0 0 0 0 0 0 0 0 0 0 0 0 0 1 1 0 0 0 1 1 1 1 1 1 1 1 1 1 0 0 0 0 0 0 0 0 0 0 0 0 0 0 0 0 0 0
0 0 0 0 0 0 0 0 0 0 0 0 0 0 0 0 1 1 0 0 1 1 1 1 1 1 1 1 1 1 1 1 1 0 0 0 0 0 0 0 0 0 0 0 0 0 0 0 0
0 0 0 0 0 0 0 0 0 0 0 0 0 0 0 1 1 0 0 0 1 1 1 1 1 1 1 1 1 1 1 1 1 1 0 0 0 0 0 0 0 0 0 0 0 0 0 0 0
0 0 0 0 0 0 0 0 0 0 0 0 0 0 1 1 1 1 0 0 0 0 0 1 1 1 1 1 1 1 1 1 1 1 1 0 0 0 0 0 0 0 0 0 0 0 0 0 0
0 0 0 0 0 0 0 0 0 0 0 0 0 0 1 1 1 1 1 0 0 0 0 0 0 1 1 1 1 1 1 1 1 1 1 0 0 0 0 0 0 0 0 0 0 0 0 0 0
0 0 0 0 0 0 0 0 0 0 0 0 0 0 0 1 1 1 1 1 1 1 1 0 0 0 0 1 1 1 1 1 1 1 0 0 0 0 0 0 0 0 0 0 0 0 0 0 0
0 0 0 0 0 0 0 0 0 0 0 0 0 0 0 1 0 1 1 1 1 1 1 1 0 0 0 1 1 1 1 1 1 1 0 0 0 0 0 0 0 0 0 0 0 0 0 0 0
0 0 0 0 0 0 0 0 0 0 0 0 0 0 0 0 0 0 1 1 1 1 1 1 1 1 0 1 1 1 1 1 1 1 0 0 0 0 0 0 0 0 0 0 0 0 0 0 0
0 0 0 0 0 0 0 0 0 0 0 0 0 0 0 0 0 0 0 1 1 1 1 1 1 1 1 1 1 1 1 1 1 1 0 0 0 0 0 0 0 0 0 0 0 0 0 0 0
0 0 0 0 0 0 0 0 0 0 0 0 0 0 0 0 0 0 0 0 1 1 0 1 1 1 1 1 1 1 1 1 1 1 1 0 0 0 0 1 0 0 0 0 0 0 0 0 0
0 0 0 0 0 0 0 0 0 0 0 0 0 0 0 0 0 0 0 0 0 1 0 0 1 1 1 1 1 1 1 1 1 1 1 1 0 0 0 0 0 0 0 0 0 0 0 0 0
0 0 0 0 0 0 0 0 0 0 0 0 0 0 0 0 0 0 0 0 0 0 0 0 1 1 1 1 1 1 1 1 1 1 1 1 1 0 0 0 0 0 0 0 0 0 0 0 0
0 0 0 0 0 0 0 0 0 0 0 0 0 0 0 0 0 0 0 0 0 0 0 0 0 1 1 1 1 1 1 1 1 1 1 1 1 1 1 1 1 0 0 0 0 0 0 0 0
0 0 0 0 0 0 0 0 0 0 0 0 0 0 0 0 0 0 0 0 0 0 0 0 1 1 1 1 1 1 1 1 1 1 1 1 1 1 1 1 1 1 1 0 0 0 0 0 0
0 0 0 0 0 0 0 0 0 0 0 0 0 0 0 0 0 0 0 0 0 0 0 1 1 1 1 1 1 1 1 1 1 1 1 1 1 1 1 1 1 1 1 1 1 0 0 0 0
0 0 0 0 0 0 0 0 0 0 0 0 0 0 0 0 0 0 0 0 0 0 0 0 1 1 1 1 1 1 1 1 1 1 1 1 1 1 1 1 1 1 1 1 1 1 0 0 0
0 0 0 1 1 0 0 0 0 0 0 0 0 0 0 0 0 0 0 0 0 0 0 0 0 0 1 1 1 1 1 1 1 1 1 1 1 1 1 1 0 0 1 1 1 1 0 0 0
0 0 0 0 0 0 0 0 0 0 0 0 0 0 0 0 0 0 0 0 0 0 0 0 0 0 0 0 1 1 0 0 0 1 1 1 1 1 1 1 0 0 0 0 0 1 1 0 0
0 0 0 0 0 0 0 0 0 0 0 0 0 0 0 0 0 0 0 0 0 0 0 0 0 0 0 0 0 0 0 0 0 0 0 0 1 1 1 1 0 0 0 0 0 0 0 0 0
0 0 0 0 0 0 0 0 0 0 0 0 0 0 0 0 0 0 0 0 0 0 0 0 0 0 0 0 0 0 0 0 0 0 0 0 0 1 1 1 0 1 0 0 0 0 0 0 0
0 0 0 0 0 0 0 0 0 0 0 0 0 0 0 0 0 0 0 0 0 0 0 0 0 0 0 0 0 0 0 0 0 0 0 0 0 1 1 1 1 0 0 0 0 0 0 0 0
Wind_Speed
4 1 3 4 5 5 5 3 3 4 3 2 3 3 3 2 2 3 5 9 12 14 15 15 12 14 15 14 13 13 12 12 12 12 11 11 11 11 10 10 9 9 9 10 10 10 10 10 9
3 2 4 4 6 7 5 4 6 4 2 4 3 3 3 2 1 3 5 10 13 14 14 14 13 13 14 14 13 12 12 12 12 11 11 11 11 10 10 9 9 8 8 8 8 9 9 8 8
3 3 4 4 6 8 5 4 4 3 3 3 4 2 2 1 2 4 5 12 13 13 13 13 12 14 14 14 13 12 12 11 11 11 11 11 10 10 10 9 8 7 7 7 7 8 8 7 7
3 3 3 7 9 7 5 3 4 5 5 3 3 3 2 2 1 4 9 12 13 13 13 14 12 13 14 14 13 12 12 11 11 11 10 10 10 9 9 8 7 7 6 6 6 7 7 6 6
2 4 6 8 10 7 5 4 5 6 5 5 4 3 3 3 3 7 11 12 13 13 12 14 12 12 12 13 13 12 12 11 11 10 10 10 9 9 8 8 7 6 6 6 6 6 6 5 4
3 4 8 11 11 7 6 5 6 7 5 4 5 3 3 4 5 8 11 11 11 12 11 12 11 10 11 11 11 11 11 10 10 10 10 9 9 8 8 7 7 6 5 5 5 5 5 4 3
4 6 11 12 10 9 6 5 7 7 7 6 4 4 4 5 6 9 10 10 10 11 11 11 12 12 10 9 9 9 9 9 9 9 8 8 7 7 6 6 6 6 5 5 4 4 3 3 2
3 5 10 12 12 10 5 6 5 7 5 2 4 5 3 6 8 9 9 9 9 10 10 11 11 11 11 11 9 8 8 8 8 8 7 7 7 6 6 6 5 5 5 5 4 4 3 2 2
3 8 12 13 11 8 5 6 4 2 3 4 3 2 3 10 11 10 8 8 9 9 10 10 11 11 10 10 9 9 8 8 8 8 8 8 7 7 7 6 4 4 4 4 5 4 4 3 3
6 11 14 9 8 6 6 7 5 5 6 6 5 2 4 11 12 12 12 12 12 12 11 10 11 11 10 8 8 8 8 8 9 8 9 7 6 5 5 5 5 5 4 5 5 5 5 6 4
6 11 9 8 6 5 6 6 5 8 9 9 9 8 8 11 11 12 13 13 13 12 11 11 11 11 10 8 7 6 5 6 8 9 8 7 6 5 5 4 5 6 6 6 5 6 5 4 4
7 8 7 6 4 5 7 6 7 10 8 4 6 6 10 13 13 14 13 12 12 12 12 11 11 10 11 9 7 7 6 6 6 8 9 7 5 5 5 4 5 4 4 5 5 4 5 5 5
9 8 7 6 6 6 6 9 9 10 9 5 4 7 11 13 13 12 11 10 11 12 12 12 11 11 10 9 7 7 7 7 7 7 8 9 6 6 6 5 5 5 5 5 5 5 5 5 6
6 6 7 7 7 6 8 10 9 10 8 6 6 8 10 12 12 11 11 11 12 12 12 11 12 11 11 9 8 8 7 7 7 7 8 9 7 7 6 6 5 6 5 5 5 6 5 5 5
5 7 8 8 8 6 6 12 14 11 8 9 9 8 9 10 11 12 12 12 12 11 11 11 11 11 11 11 10 7 7 7 7 7 8 9 9 8 7 6 6 5 5 6 5 6 5 5 5
4 8 10 8 8 7 9 17 12 8 9 11 10 9 8 9 10 11 11 11 10 10 11 11 9 11 12 10 9 7 7 8 7 7 7 10 10 10 8 6 6 6 5 5 5 5 5 5 5
7 11 13 9 7 7 11 14 8 6 9 11 10 9 8 8 8 9 9 10 10 10 10 11 11 11 11 11 9 8 7 7 7 7 7 8 10 10 8 7 6 6 5 5 5 5 5 5 5
10 12 12 12 5 8 12 14 9 6 8 11 10 9 8 8 8 7 7 8 8 9 10 10 11 11 10 8 7 6 7 7 7 7 8 9 8 10 9 7 7 7 6 6 6 6 6 5 5
9 10 12 9 4 6 12 15 12 9 8 9 9 8 8 7 6 5 5 5 6 7 8 10 10 10 9 7 7 7 7 7 7 7 8 9 9 9 9 7 7 7 6 7 7 6 6 5 4
10 11 11 7 4 6 10 14 12 11 10 10 10 9 9 8 6 5 4 4 4 5 6 8 9 9 9 8 7 6 6 5 6 6 7 9 10 10 8 9 7 7 7 8 8 7 5 5 4
10 12 10 7 5 6 8 13 12 9 9 8 8 9 8 7 6 5 4 4 4 4 4 4 6 7 8 9 6 4 4 3 4 6 6 8 9 9 9 9 8 8 8 7 8 8 8 6 6
9 7 7 6 6 5 6 9 9 7 7 7 7 6 6 5 4 4 3 3 3 3 3 3 4 4 6 7 7 9 7 7 7 6 6 6 8 8 9 9 9 8 7 8 7 8 7 8 6
5 4 6 6 6 7 7 9 7 4 8 6 4 3 3 3 3 3 4 4 4 4 3 3 2 2 3 4 7 8 7 6 5 5 5 5 6 7 8 8 8 8 7 8 8 8 8 7 7
3 2 3 4 5 9 10 10 7 4 5 3 0 2 3 3 3 3 4 5 5 5 4 3 3 2 2 1 3 4 5 5 5 4 4 4 4 4 7 7 7 7 7 8 8 8 9 8 8
4 4 3 4 6 7 5 8 5 1 1 1 0 2 3 4 4 5 6 6 6 7 6 5 4 4 3 2 1 2 3 4 5 4 4 3 3 3 4 5 6 6 7 7 7 7 7 8 9
7 7 5 5 5 4 4 8 3 1 1 2 2 2 3 4 4 5 5 5 6 6 6 6 6 5 4 3 2 2 2 2 2 3 3 3 3 3 3 4 4 4 5 5 6 6 6 6 7
4 5 5 3 2 4 4 3 4 1 0 1 2 4 5 5 5 5 5 5 6 6 6 5 5 5 5 4 4 3 3 2 2 2 2 2 2 2 3 3 3 4 4 4 4 4 5 5 6
3 3 3 3 3 5 5 6 4 2 1 1 2 4 5 5 5 5 5 5 5 5 5 5 5 5 5 4 3 3 3 3 3 2 2 2 3 3 3 3 3 3 3 3 4 4 4 4 4
2 3 3 3 3 4 5 4 1 3 1 1 3 4 4 5 5 5 5 5 5 5 5 5 5 5 5 5 4 4 4 3 3 3 3 3 3 3 3 3 3 3 3 3 3 4 4 5 5
3 4 4 4 4 5 5 5 1 1 2 4 5 6 6 5 5 5 5 5 5 5 5 5 5 5 5 5 4 4 4 4 3 3 4 3 3 3 3 3 3 3 3 3 3 4 4 5 5
Wind_Direction
325 209 228 239 233 229 234 204 203 174 173 148 157 196 226 228 281 29 83 151 148 152 154 156 159 157 154 153 151 150 150 148 146 144 142 137 131 124 117 114 111 110 108 106 103 100 95 90 88
313 255 237 242 243 231 218 203 205 193 130 134 159 188 210 199 29 85 135 154 154 153 156 159 154 156 155 155 153 153 153 151 148 146 144 140 135 131 125 120 116 114 113 112 110 106 100 96 92
289 255 252 233 235 239 224 187 198 151 154 178 168 201 254 71 114 140 145 156 156 155 158 151 154 157 157 157 157 156 156 154 152 150 148 143 139 135 132 128 123 120 119 116 116 115 107 101 95
268 222 227 236 232 238 247 209 181 168 174 198 194 176 149 45 58 132 146 159 158 158 159 153 160 160 161 161 162 162 161 161 160 156 152 149 145 141 138 135 132 128 126 122 121 122 116 111 104
254 241 226 230 236 236 242 244 207 205 196 191 207 200 147 96 95 132 151 161 161 159 161 159 161 162 164 165 167 167 167 167 166 163 158 154 151 150 148 146 142 139 135 132 131 132 125 119 111
228 227 232 231 229 231 235 221 210 222 214 195 208 206 137 116 137 146 154 164 163 161 163 161 159 163 165 169 171 171 171 171 170 168 165 161 159 160 162 160 157 155 150 146 144 143 138 131 121
234 226 237 238 235 233 228 204 215 219 219 207 205 204 155 151 148 152 158 163 165 164 167 168 171 171 169 171 172 172 173 173 172 170 166 162 160 163 166 168 173 175 171 166 161 159 155 157 151
250 234 233 231 232 234 215 201 225 225 229 174 205 217 173 152 146 150 156 164 169 172 176 176 177 180 181 180 174 176 177 175 171 169 163 161 163 168 168 182 180 196 194 189 188 188 195 200 204
224 229 230 226 227 230 205 211 202 232 198 191 219 287 46 132 146 151 158 171 177 183 186 185 183 185 186 186 178 183 181 180 177 177 171 179 194 193 189 197 183 202 205 207 207 205 211 214 206
213 230 233 235 236 236 215 226 207 199 207 210 208 181 133 149 164 172 179 184 189 191 192 192 191 189 190 187 186 193 194 192 199 198 192 199 203 203 209 179 194 207 210 216 220 219 219 231 233
220 236 238 238 242 247 235 232 223 222 227 227 222 196 167 172 182 191 195 195 196 196 195 198 197 195 195 192 194 195 197 199 204 205 204 205 206 204 211 204 196 209 214 222 212 218 231 239 253
237 241 243 241 239 237 240 236 228 231 242 266 251 197 181 187 196 201 203 202 199 200 202 201 201 200 202 202 200 200 200 200 204 204 207 207 208 212 213 218 216 217 218 224 229 231 236 244 249
236 243 244 247 240 244 245 239 241 241 249 270 245 195 199 202 207 210 211 209 206 206 204 204 203 205 203 205 207 207 208 207 207 207 208 211 212 214 215 217 219 224 225 224 229 235 238 244 249
242 247 252 250 245 240 237 245 242 247 245 238 223 215 214 213 212 211 211 211 211 212 209 203 204 207 206 207 209 212 212 211 213 211 211 212 216 217 217 219 219 224 227 231 233 237 240 244 247
245 248 249 240 234 233 234 244 236 246 242 235 231 229 227 225 219 219 217 216 215 214 211 207 206 206 208 211 212 215 213 212 214 215 214 213 217 220 219 222 222 224 224 227 232 238 240 245 247
223 229 236 226 222 220 222 244 238 243 239 240 238 236 236 234 232 230 228 225 222 218 214 211 206 208 210 211 213 214 216 215 216 217 216 216 218 220 220 223 226 223 220 221 224 228 232 239 246
215 229 234 229 217 218 223 247 250 246 239 242 243 243 244 244 243 239 235 231 228 224 220 216 212 212 212 212 213 215 216 219 220 218 218 218 218 218 220 223 226 221 218 220 222 225 230 241 248
215 229 233 230 213 228 233 245 251 256 251 250 248 248 246 247 250 248 245 240 235 230 225 222 218 217 213 209 211 213 217 220 221 220 220 218 218 217 218 222 223 218 217 220 219 224 227 238 252
239 240 241 242 243 245 244 253 256 257 255 254 251 250 252 253 260 261 258 249 239 232 228 225 221 217 210 205 205 208 214 216 219 221 221 220 218 215 215 219 220 216 218 221 218 221 229 233 235
234 240 247 257 260 253 261 263 261 252 249 255 256 255 254 260 266 267 269 257 244 240 235 233 228 221 213 211 208 211 211 215 221 220 222 222 218 216 214 218 219 215 218 222 222 219 228 231 219
234 231 238 251 275 249 270 262 246 241 238 246 251 254 257 260 265 274 280 276 266 259 254 247 242 232 221 216 209 204 209 216 218 222 222 221 219 217 215 217 220 219 219 222 222 219 224 229 224
236 229 238 246 252 243 234 262 244 241 238 238 246 256 265 273 280 291 307 314 309 298 285 264 255 245 232 217 211 210 213 219 223 223 221 219 217 220 219 219 220 221 221 225 225 224 225 228 229
236 230 240 243 250 259 231 250 261 235 236 239 245 270 294 303 318 338 352 355 356 349 342 327 306 280 260 232 220 220 226 232 234 229 228 226 222 222 223 221 220 221 223 226 225 224 224 225 229
205 209 243 231 233 246 228 232 260 236 240 245 278 0 353 351 359 5 11 16 15 14 8 357 353 346 330 281 238 227 230 232 234 237 235 232 228 225 226 224 223 222 224 226 227 226 226 227 229
199 192 198 208 212 236 212 224 253 294 275 258 23 30 22 18 16 11 12 15 16 17 16 14 16 9 1 348 310 261 248 241 237 240 238 234 234 233 232 228 228 227 228 229 228 226 227 228 229
214 215 217 224 224 231 212 228 238 360 23 43 46 44 34 24 19 16 9 8 10 14 17 17 18 11 8 6 351 323 300 265 258 254 254 250 252 249 245 233 233 233 232 231 230 228 228 230 232
203 219 245 255 270 252 231 237 249 265 292 65 48 27 16 10 8 7 5 6 8 12 15 14 12 13 13 12 6 355 345 328 308 296 279 270 276 279 266 255 240 238 237 235 233 231 229 230 234
229 207 206 214 221 237 244 244 238 206 186 66 42 17 2 358 358 359 1 6 6 4 5 13 14 15 16 17 14 2 351 343 340 337 320 319 309 299 284 275 265 255 248 243 237 238 238 235 237
205 206 221 208 245 247 252 254 319 235 268 339 2 360 353 351 349 353 360 3 5 10 11 11 7 8 9 8 8 9 7 6 4 358 344 333 324 319 311 302 288 273 263 256 248 245 242 238 240
263 229 218 225 237 249 258 261 14 270 2 360 353 352 354 353 355 1 8 9 6 5 4 2 1 358 356 359 2 8 9 8 7 2 351 342 332 326 317 309 300 291 277 266 253 250 250 247 245